• Processing (Info)

  • MPEC 2006-B23 : 2006 BH

    The following Minor Planet Electronic Circular may be linked-to from your own Web pages, but must not otherwise be redistributed electronically.

    A form allowing access to any MPEC is at the bottom of this page.


    Read MPEC 2006-B22 Read MPEC 2006-B24


    M.P.E.C. 2006-B23                                Issued 2006 Jan. 22, 02:35 UT
    
         The Minor Planet Electronic Circulars contain information on unusual
             minor planets and routine data on comets.  They are published
       on behalf of Commission 20 of the International Astronomical Union by the
              Minor Planet Center, Smithsonian Astrophysical Observatory,
                              Cambridge, MA 02138, U.S.A.
    
                      Supported in part by the Brinson Foundation
                      Supported in part by the TABASGO Foundation
                 Prepared using the Tamkin Foundation Computer Network
    
                                  MPC@CFA.HARVARD.EDU
              URL http://cfa-www.harvard.edu/iau/mpc.html  ISSN 1523-6714
    
                                        2006 BH
    
    Observations:
         K06B00H* C2006 01 20.37465 09 52 03.57 +06 23 55.9          18.8 V EB023703
         K06B00H  C2006 01 20.38105 09 52 03.07 +06 23 34.8          18.8 V EB023703
         K06B00H  C2006 01 20.38749 09 52 02.56 +06 23 14.8          19.1 V EB023703
         K06B00H  C2006 01 20.39388 09 52 02.02 +06 22 53.4          19.2 V EB023703
         K06B00H  C2006 01 20.40185 09 52 01.38 +06 22 27.5          17.8 V EB023703
         K06B00H  C2006 01 20.40273 09 52 01.34 +06 22 25.1          19.0 V EB023703
         K06B00H  C2006 01 20.40854 09 52 00.76 +06 22 06.9          18.3 V EB023703
         K06B00H  C2006 01 20.40941 09 52 00.66 +06 22 04.0          18.7 V EB023703
         K06B00H  C2006 01 20.41521 09 52 00.19 +06 21 45.7          18.4 V EB023703
         K06B00H  C2006 01 20.41608 09 52 00.08 +06 21 42.0          18.5 V EB023703
         K06B00H  C2006 01 20.42198 09 51 59.58 +06 21 24.5          18.3 V EB023703
         K06B00H  C2006 01 20.42285 09 51 59.54 +06 21 21.6          18.4 V EB023703
         K06B00H  C2006 01 20.94743 09 51 17.86 +05 53 02.1          18.1 R EB023J87
         K06B00H  C2006 01 20.95655 09 51 17.04 +05 52 32.0          18.1 R EB023J87
         K06B00H  C2006 01 20.96131 09 51 16.44 +05 52 15.3          18.5 R EB023143
         K06B00H  C2006 01 20.96686 09 51 16.14 +05 51 58.4          18.4 R EB023J87
         K06B00H  C2006 01 20.98628 09 51 14.26 +05 50 53.8          18.1 R EB023143
         K06B00H  C2006 01 20.98775 09 51 14.22 +05 50 48.0                 EB023J95
         K06B00H  C2006 01 20.99194 09 51 13.83 +05 50 34.1                 EB023J95
         K06B00H  C2006 01 20.99615 09 51 13.49 +05 50 20.5          18.4 R EB023J95
         K06B00H  C2006 01 21.05727 09 51 08.15 +05 47 03.7          18.3 R EB023176
         K06B00H  C2006 01 21.05814 09 51 08.05 +05 47 00.3          18.1 R EB023176
         K06B00H  C2006 01 21.05899 09 51 08.03 +05 46 57.9          18.1 R EB023176
         K06B00H  C2006 01 21.05986 09 51 07.88 +05 46 54.7          17.9 R EB023176
         K06B00H  C2006 01 21.06139 09 51 07.79 +05 46 50.3          18.3 R EB023176
         K06B00H 5C2006 01 21.41157 09 50 38.30 +05 27 39.3          19.1 R EB023673
         K06B00H 5C2006 01 21.41644 09 50 37.93 +05 27 24.7                 EB023673
         K06B00H 5C2006 01 21.42130 09 50 37.44 +05 27 06.6                 EB023673
         K06B00H 5C2006 01 21.42685 09 50 36.93 +05 26 48.5                 EB023673
         K06B00H  C2006 01 22.01897 09 49 46.18 +04 53 47.1          19.0 V EB023951
         K06B00H  C2006 01 22.02041 09 49 46.00 +04 53 41.3          19.5 V EB023951
         K06B00H  C2006 01 22.02097 09 49 45.95 +04 53 38.4                 EB023J95
         K06B00H  C2006 01 22.02184 09 49 45.85 +04 53 36.3          19.6 V EB023951
         K06B00H  C2006 01 22.02328 09 49 45.76 +04 53 31.4          20.0 V EB023951
         K06B00H  C2006 01 22.02474 09 49 45.60 +04 53 25.7                 EB023J95
         K06B00H  C2006 01 22.02902 09 49 45.51 +04 53 11.5          18.7 V EB023951
         K06B00H  C2006 01 22.03045 09 49 45.11 +04 53 06.6          18.3 R EB023J95
    
    Observer details:
    143 Gnosca.  Observer S. Sposetti.  0.40-m f/4 reflector + CCD.
    176 Observatori Astronomic de Consell.  Observers A. Lopez, R. Pacheco.
        0.41-m f/4 reflector + CCD.
    673 Table Mountain Observatory, Wrightwood.  Observer J. Young.  0.6-m f/16
        Cassegrain + CCD.
    703 Catalina Sky Survey.  Observer R. A. Kowalski.  Measurers E. C. Beshore,
        E. J. Christensen, G. J. Garradd, A. D. Grauer, R. E. Hill, R. A. Kowalski,
        S. M. Larson, R. H. McNaught.  0.68-m Schmidt + CCD.
    951 Highworth.  Observer J. Rock.  0.25-m f/6.3 Schmidt-Cassegrain + CCD.
    J87 La Canada.  Observer J. Lacruz.  0.30-m Schmidt-Cassegrain + CCD.
    J95 Great Shefford.  Observer P. Birtwhistle.  0.40-m f/6.0 Schmidt-Cassegrain
        + CCD.
    
    Orbital elements:
    2006 BH                                                  Earth MOID = 0.3941 AU
    Epoch 2006 Jan. 5.0 TT = JDT 2453740.5                  MPC
    M 344.22758              (2000.0)            P               Q
    n   0.17198061     Peri.  249.56643     -0.85477401     +0.31112571
    a   3.2024552      Node   306.15478     +0.01545317     -0.78478455
    e   0.6411085      Incl.   30.96282     -0.51877027     -0.53601679
    P   5.73           H   18.3           G   0.15
    From 36 observations 2006 Jan. 20-22.
    
    Ephemeris:
    2006 BH                  a,e,i = 3.20, 0.64, 31                  q = 1.1493
    Date    TT    R. A. (2000) Decl.     Delta      r     Elong.  Phase     V
    2006 01 15    09 58.02   +10 47.3    0.605    1.526   146.7    20.7    19.1
    2006 01 25    09 45.01   +01 58.7    0.501    1.453   154.7    16.9    18.5
    2006 02 04    09 23.14   -09 38.3    0.429    1.384   153.8    18.3    18.1
    2006 02 14    08 52.52   -22 56.5    0.397    1.321   141.3    27.9    18.1
    2006 02 24    08 15.83   -35 14.6    0.402    1.265   125.4    39.6    18.4
    2006 03 06    07 38.42   -44 33.5    0.431    1.218   111.6    49.2    18.7
    2006 03 16    07 05.59   -50 58.9    0.472    1.182   101.4    55.5    19.1
    2006 03 26    06 39.86   -55 31.1    0.515    1.159    94.7    59.1    19.3
    2006 04 05    06 21.68   -59 05.0    0.553    1.150    90.8    60.5    19.5
    2006 04 15    06 10.53   -62 18.9    0.583    1.154    89.3    60.3    19.6
    2006 04 25    06 06.37   -65 36.3    0.603    1.173    90.0    59.0    19.7
    2006 05 05    06 10.81   -69 16.0    0.615    1.205    92.6    56.7    19.7
    2006 05 15    06 28.67   -73 31.8    0.620    1.248    96.9    53.5    19.7
    2006 05 25    07 16.50   -78 20.7    0.622    1.301   102.8    49.4    19.7
    2006 06 04    09 34.86   -82 25.1    0.627    1.362   109.9    44.5    19.7
    2006 06 14    13 22.60   -80 46.6    0.641    1.429   117.4    39.1    19.7
    2006 06 24    15 09.28   -73 48.3    0.672    1.501   124.2    34.1    19.7
    2006 07 04    15 54.67   -65 32.4    0.724    1.576   128.9    30.1    19.9
    2006 07 14    16 21.54   -57 32.0    0.802    1.653   130.4    27.9    20.2
    2006 07 24    16 41.47   -50 26.6    0.905    1.732   128.7    27.2    20.5
    2006 08 03    16 58.49   -44 29.5    1.031    1.812   124.7    27.4    20.9
    2006 08 13    17 14.17   -39 38.3    1.177    1.892   119.4    27.8    21.3
    2006 08 23    17 29.20   -35 42.9    1.339    1.972   113.4    28.1    21.7
    2006 09 02    17 43.99   -32 32.0    1.516    2.052   107.0    28.0    22.0
    
    Gareth V. Williams           (C) Copyright 2006 MPC           M.P.E.C. 2006-B23
    

    Read MPEC 2006-B22 Read MPEC 2006-B24


    MPEC number:

    Enter an MPEC number in one of the following forms:

    • 1997-B01 (the full form)
    • J97B01 (the packed version of the full form)
    • B01 (the abbreviated form)